Location: Lecco
(45.8566°N, 9.3977°E)
Time: 20:34:49
(UTC+02:00)

OTV 5 (USA 277) - Pass Details

Date: 17 June 2019
Orbit: 305 x 329 km, 54.5° (Epoch: 20 August)

Event Time Altitude Azimuth Distance (km) Brightness Sun altitude
Exits shadow 02:06:22 19° 300° (WNW) 873 ? -20.1°
Maximum altitude 02:07:31 25° 339° (NNW) 720 ? -20.0°
Drops below altitude 10° 02:09:54 10° 37° (NE) 1,254 ? -20.0°
Enters shadow 03:08:31 -64° 255° (WSW) 11,759 ? -16.8°
